Location: Clanezzo
(45.7500°N, 9.6000°E)
Time: 13:51:38
(UTC+00:00)

ESTCUBE 1 - Pass Details

Date: 04 July 2022
Orbit: 645 x 657 km, 97.9° (Epoch: 18 August)

Event Time Altitude Azimuth Distance (km) Brightness Sun altitude
Exits shadow 22:56:42 - 248° (WSW) 2,098 ? -21.1°
Reaches altitude 10° 22:57:03 10° 252° (WSW) 2,047 ? -21.1°
Maximum altitude 22:58:35 12° 272° (W) 1,945 ? -21.2°
Drops below altitude 10° 23:00:08 10° 293° (WNW) 2,055 ? -21.2°
Sets 23:03:57 0° 326° (NW) 2,976 ? -21.3°
